Showing default

IRIS-F2, 62684

Orbit data source: Space-Track

IRIS-F2, 62684 is a payload satellite owned by NCKU (TW) in SSO that was launched on Tue, 14 Jan 2025 UTC via an FALCON 9 launch vehicle from the Air Force Western Test Range (AFWTR). Payload-class satellites include a variety of spacecraft equipped with specific instruments for various scientific and technological missions. These include communications satellites like Starlink; space stations such as the ISS; scientific satellites like the Hubble; Earth observation satellites from companies like Planet Labs, Umbra, and HawkEye 360; GPS; miniature CubeSats for education and research; and military/defense satellites.

Loading next visibility...
Identifier
62684, 2025-009CD
Orbit
SSO
Country
Flag of TWTW / TWN
Related business
Manufacturer
NCKU
Mission
Operational Amateur Technology
Bus & Motor
CUBESAT 3U, Unknown motor
Mass
4 kg wet, 4 kg dry
Launch date (UTC)
2025-01-14 (1 year ago)
Launch vehicle
FALCON 9
Launch site
Air Force Western Test Range (AFWTR)
Object type
Payload
Rocket body
Debris
Shape & HBR
Box, 0.4 m
Radar Cross Section
0.800 m², Medium (>0.1 m² and < 1m²)

Expand to show TLE details & history
Last TLE update: 19 hours ago

TLE from 19 hours ago
0 IRIS-F2
1 62684U 25009CD  26035.17151058  .00008348  00000-0  34332-3 0  9997
2 62684  97.3994 116.5286 0007031 100.8258 259.3771 15.24383383116184
Epoch: 2026-02-04T04:06Z
TLE epoch observation values (Epoch: 2026-02-04T04:06:58.514Z)
Latitude
-0.00002°
Longitude
-79.55712°
Altitude
496.628 km
Speed
7.616 km/s
True Right ascension
07h 46m 06s
True Declination
0° 00' 00"
Sunlit
Object was in full shadow at epoch
Visualization orbit readout
Latitude
Unknown
Longitude
Unknown
Altitude
Unknown
Speed
Unknown
Apparent Right ascension
Unknown
Apparent Declination
Unknown
Sunlit
N/A
Visualization observer readout
Local Sidereal Time
01:01:10
Azimuth
Unknown
Elevation
Unknown
Doppler factor
Unknown
Orbital elements
Apogee altitude
494.426 km
Perigee altitude
484.769 km
Semi-major axis
6,867.734 km
Eccentricity
0.0007
Inclination
97.3994°
RAAN
116.5286°
Arg. of periapsis
100.8258°
True anomaly
259.29792°
Mean anomaly
259.3771°
Eccentric anomaly
259.33751°
Mean motion
3.81349 °/min
Orbital period
94.4 mins
BSTAR
0.00034332
Loading maneuver chart data...
Computing Atmospheric mass density...
Loading historical data...
Loading historical data...
Loading historical data...
Loading historical data...
Loading historical data...
Loading historical data...
Loading historical data...

Documentation

Showing up to 5 results
|